Tracking 19636 objects as of 25-May-2019
HD Live streaming from Space Station
objects crossing your sky now

ESTRELA DU SOL-TELSTAR14

Track ESTRELA DU SOL-TELSTAR14 now!
ESTRELA DU SOL-TELSTAR14 is classified as:


NORAD ID: 28137
Int'l Code: 2004-001A
Perigee: 36,170.5 km
Apogee: 36,235.1 km
Inclination: 5.9 °
Period: 1,457.0 minutes
Semi major axis: 42573 km
RCS: 12.5892 m2 (large)
Launch date: January 11, 2004
Source: United States/Brazil (USBZ)
Launch site: SEA LAUNCH (SEAL)

41 Ku-band transponders; direct-to-home video and internet to Brazil and North America.
aabbcc
Your satellite tracking list
Your tracking list is empty




NASA's NSSDC Master Catalog

Two Line Element Set (TLE):
1 28137U 04001A   19143.87271578 +.00000043 +00000-0 +00000-0 0  9996
2 28137 005.9047 061.4287 0007585 290.8863 256.3240 00.98829985056075
Source of the keplerian elements: AFSPC